Location: Unspecified
(0.0000°N, 0.0000°E)
Time: 20:57:02
(UTC+00:00)

deb Kosmos-1275 - Pass Details

Date: 15 March 2026
Orbit: 936 x 1103 km, 82.9° (Epoch: 11 April)

Event Time Altitude Azimuth Distance (km) Brightness Sun altitude
Rises 18:32:55 0° 341° (NNW) 3,892 ? -6.0°
Reaches altitude 10° 18:35:43 10° 334° (NNW) 2,925 ? -6.7°
Maximum altitude 18:41:55 39° 268° (W) 1,541 ? -8.3°
Drops below altitude 10° 18:47:59 10° 200° (SSW) 2,844 ? -9.8°
Sets 18:50:41 0° 193° (SSW) 3,773 ? -10.5°
